Погода в Блек Рок

Тринидад и Тобаго     11°12′11″N   60°46′41″W
темп.,
°C
ветер,
м/с
пор.,
м/с
влажн.,
%
обл.,
%
осадки,
мм/ч
давл.,
гПа
погр.,
м
22 сентября, ср
ср2223:00+29вюв667189 0.0 1012998
02:00+29в5570100 0.0 1010946
05:00+29в667290 0.0 1011995
08:00+29в557224 0.1 1012945
11:00+29в556880 0.0 1013934
14:00+29вюв557415 0.1 1010887
17:00+29в557212 0.1 1009920
20:00+29в667212 0.3 1011979
23 сентября, чт
чт2323:00+29в66758 0.1 1012917
02:00+29в55748 0.1 1010901
05:00+29вюв667256 0.1 1010988
08:00+29вюв56726 0.1 1013961
11:00+29вюв677412 0.1 1013948
14:00+29юв667420 0.6 1010870
17:00+29вюв67758 0.1 1010877
20:00+29вюв67737 0.1 1012977
24 сентября, пт
пт2423:00+29вюв77757 0.1 1012948
02:00+29вюв777535 0.1 1011994
05:00+29вюв777472 0.1 10121103
08:00+29вюв67768 0.9 1014844
11:00+29вюв787417 2.8 1014903
14:00+29вюв787531 4.3 1012777
17:00+29вюв7875100 3.8 1012864
20:00+29в787590 0.6 1012970
25 сентября, сб
сб2523:00+29вюв7876100 0.2 1013958
02:00+29вюв7777100 0.4 1012891
05:00+29вюв677631 0.9 1013909
08:00+29вюв777520 1.9 1014927
11:00+29вюв667313 0.8 1014967
14:00+29вюв557313 0.8 1013890
17:00+29в55745 0.0 1012713
20:00+29в667511 0.1 1013884
26 сентября, вс
вс2623:00+29в667439 0.0 1013856
02:00+29в667688 0.3 1012841
05:00+29в667320 0.4 1012962
08:00+29всв777424 0.7 1013972
11:00+29в667134 0.8 10141020
14:00+29в5573100 2.6 1012732
17:00+29в4573100 0.5 1012677
20:00+29в6675100 0.6 1012877